STARLINK-3247 (49747 NORAD) Tracking and Keplerian Element Data
This shows tracking and keplerian element data for the satellite.
Feedback or suggestion? Click here.
Element | Value |
Catalog | 49747 |
Name | STARLINK-3247 |
Epoch Orbit | 2698 |
Epoch Day | 140.91667824 |
Epoch Year | 2022 |
RAAN | 263.5694 |
Inclination | 53.2123 |
Eccentricity | 0.0002115 |
Argument of Perigee | 34.2303 |
Mean Anonmoly | 353.8289 |
Mean Motion | 15.08863864 |
Decay Rate | -0.0002362 |
L1 | 1 49747U 21115Z 22140.91667824 -.00023620 00000+0 -14698-2 0 9997 |
L2 | 2 49747 53.2123 263.5694 0002115 34.2303 353.8289 15.08863864 26980 |
Live tracking and technical data element details for STARLINK-3247 (NORAD 49747). STARLINK-3247 can be tracked NOW for your location showing map with azimuth and elevation plus other details from your city location.
Track the satellite on the map from your city or location and see movement details for azimuth, elevation, latitude, longitude, range, height, and movement on the map or in text.
IsCatalogInMostPopularTable: catalog: 49747, numindb: 21
Update: records affected: 1
GetName: 49747 STARLINK-3247
Hit Count: updated at: Mon, 23 May 2022 20:30:57 GMT